Time,TemperatureF,DewpointF,PressureIn,WindDirection,WindDirectionDegrees,WindSpeedMPH,WindSpeedGustMPH,Humidity,HourlyPrecipIn,Conditions,Clouds,dailyrainin,SoftwareType,DateUTC
2013-10-28 00:14:00,37.0,30.0,30.01,WSW,256,4.0,7.0,77,0.00,,,0.00,,2013-10-28 04:14:00,
2013-10-28 00:24:00,37.0,30.0,30.04,WSW,256,2.0,8.0,76,0.00,,,0.00,,2013-10-28 04:24:00,
2013-10-28 00:43:00,37.0,30.0,30.01,SW,221,3.0,7.0,77,0.00,,,0.00,,2013-10-28 04:43:00,
2013-10-28 00:53:00,37.0,31.0,30.02,WNW,296,2.0,7.0,78,0.00,,,0.00,,2013-10-28 04:53:00,
2013-10-28 01:13:00,37.0,31.0,30.01,WSW,237,3.0,9.0,78,0.00,,,0.00,,2013-10-28 05:13:00,
2013-10-28 01:22:00,36.0,30.0,30.01,NW,305,3.0,7.0,78,0.00,,,0.00,,2013-10-28 05:22:00,
2013-10-28 01:43:00,37.0,31.0,30.01,West,276,2.0,8.0,78,0.00,,,0.00,,2013-10-28 05:43:00,
2013-10-28 01:53:00,37.0,30.0,30.01,WNW,298,4.0,9.0,77,0.00,,,0.00,,2013-10-28 05:53:00,
2013-10-28 02:12:00,37.0,30.0,30.01,WSW,244,2.0,7.0,76,0.00,,,0.00,,2013-10-28 06:12:00,
2013-10-28 02:22:00,37.0,30.0,30.01,WNW,282,1.0,6.0,76,0.00,,,0.00,,2013-10-28 06:22:00,
2013-10-28 02:43:00,37.0,30.0,30.01,WSW,252,2.0,9.0,77,0.00,,,0.00,,2013-10-28 06:43:00,
2013-10-28 02:52:00,38.0,31.0,30.01,West,262,5.0,11.0,77,0.00,,,0.00,,2013-10-28 06:52:00,
2013-10-28 03:12:00,38.0,31.0,30.01,WSW,240,2.0,8.0,76,0.00,,,0.00,,2013-10-28 07:12:00,
2013-10-28 03:22:00,38.0,31.0,30.01,West,260,1.0,6.0,77,0.00,,,0.00,,2013-10-28 07:22:00,
2013-10-28 03:42:00,38.0,31.0,30.04,West,262,3.0,11.0,77,0.00,,,0.00,,2013-10-28 07:42:00,
2013-10-28 03:52:00,38.0,31.0,30.05,WSW,251,1.0,8.0,77,0.00,,,0.00,,2013-10-28 07:52:00,
2013-10-28 04:12:00,38.0,32.0,30.01,WNW,289,1.0,5.0,78,0.00,,,0.00,,2013-10-28 08:12:00,
2013-10-28 04:22:00,37.0,31.0,30.01,SW,234,3.0,8.0,79,0.00,,,0.00,,2013-10-28 08:22:00,
2013-10-28 04:42:00,37.0,32.0,30.01,West,262,4.0,9.0,81,0.00,,,0.00,,2013-10-28 08:42:00,
2013-10-28 04:52:00,38.0,32.0,30.01,SW,224,4.0,13.0,80,0.00,,,0.00,,2013-10-28 08:52:00,
2013-10-28 05:12:00,39.0,33.0,30.01,WSW,239,7.0,15.0,79,0.00,,,0.00,,2013-10-28 09:12:00,
2013-10-28 05:22:00,39.0,33.0,30.01,West,259,6.0,17.0,78,0.00,,,0.00,,2013-10-28 09:22:00,
2013-10-28 05:43:00,39.0,33.0,30.01,WNW,286,7.0,15.0,78,0.00,,,0.00,,2013-10-28 09:43:00,
2013-10-28 05:53:00,39.0,33.0,30.01,SSW,213,6.0,15.0,79,0.00,,,0.00,,2013-10-28 09:53:00,
2013-10-28 06:13:00,38.0,32.0,30.02,WSW,237,8.0,17.0,78,0.00,,,0.00,,2013-10-28 10:13:00,
2013-10-28 06:23:00,38.0,32.0,30.02,West,260,6.0,16.0,79,0.00,,,0.00,,2013-10-28 10:23:00,
2013-10-28 06:43:00,37.0,31.0,30.06,WSW,238,5.0,13.0,80,0.00,,,0.00,,2013-10-28 10:43:00,
2013-10-28 06:53:00,37.0,31.0,30.06,SW,234,7.0,14.0,80,0.00,,,0.00,,2013-10-28 10:53:00,
2013-10-28 07:12:00,38.0,32.0,30.03,WSW,256,7.0,17.0,79,0.00,,,0.00,,2013-10-28 11:12:00,
2013-10-28 07:22:00,38.0,32.0,30.03,South,190,9.0,16.0,78,0.00,,,0.00,,2013-10-28 11:22:00,
2013-10-28 07:42:00,38.0,32.0,30.03,SW,215,8.0,16.0,78,0.00,,,0.00,,2013-10-28 11:42:00,
2013-10-28 07:52:00,38.0,31.0,30.03,SW,221,7.0,19.0,77,0.00,,,0.00,,2013-10-28 11:52:00,
2013-10-28 08:12:00,39.0,32.0,30.03,SW,218,7.0,17.0,75,0.00,,,0.00,,2013-10-28 12:12:00,
2013-10-28 08:21:00,39.0,32.0,30.04,SW,221,8.0,18.0,75,0.00,,,0.00,,2013-10-28 12:21:00,
2013-10-28 08:42:00,38.0,31.0,30.04,WSW,245,6.0,12.0,75,0.00,,,0.00,,2013-10-28 12:42:00,
2013-10-28 08:52:00,39.0,31.0,30.04,WSW,257,9.0,13.0,73,0.00,,,0.00,,2013-10-28 12:52:00,
2013-10-28 09:11:00,40.0,32.0,30.05,SSW,192,5.0,14.0,72,0.00,,,0.00,,2013-10-28 13:11:00,
2013-10-28 09:22:00,40.0,31.0,30.05,SSW,206,8.0,16.0,71,0.00,,,0.00,,2013-10-28 13:22:00,
2013-10-28 09:42:00,40.0,31.0,30.05,WSW,238,6.0,16.0,70,0.00,,,0.00,,2013-10-28 13:42:00,
2013-10-28 09:52:00,40.0,31.0,30.09,SW,220,6.0,13.0,70,0.00,,,0.00,,2013-10-28 13:52:00,
2013-10-28 10:11:00,41.0,32.0,30.05,WSW,246,7.0,12.0,69,0.00,,,0.00,,2013-10-28 14:11:00,
2013-10-28 10:22:00,42.0,33.0,30.04,WNW,298,5.0,11.0,69,0.00,,,0.00,,2013-10-28 14:22:00,
2013-10-28 10:42:00,43.0,33.0,30.04,WNW,288,4.0,15.0,68,0.00,,,0.00,,2013-10-28 14:42:00,
2013-10-28 10:52:00,44.0,33.0,30.04,SW,223,5.0,12.0,66,0.00,,,0.00,,2013-10-28 14:52:00,
2013-10-28 11:11:00,45.0,34.0,30.04,SW,230,5.0,17.0,65,0.00,,,0.00,,2013-10-28 15:11:00,
2013-10-28 11:22:00,45.0,34.0,30.04,SW,223,5.0,14.0,65,0.00,,,0.00,,2013-10-28 15:22:00,
2013-10-28 11:43:00,45.0,34.0,30.05,NW,321,3.0,12.0,66,0.00,,,0.00,,2013-10-28 15:43:00,
2013-10-28 11:53:00,45.0,34.0,30.05,SW,233,6.0,11.0,66,0.00,,,0.00,,2013-10-28 15:53:00,
2013-10-28 12:13:00,45.0,35.0,30.05,WNW,285,5.0,15.0,67,0.00,,,0.00,,2013-10-28 16:13:00,
2013-10-28 12:23:00,45.0,34.0,30.05,North,353,6.0,13.0,66,0.00,,,0.00,,2013-10-28 16:23:00,
2013-10-28 12:43:00,46.0,35.0,30.04,North,351,7.0,20.0,66,0.00,,,0.00,,2013-10-28 16:43:00,
2013-10-28 12:53:00,48.0,37.0,30.04,North,8,3.0,17.0,66,0.00,,,0.00,,2013-10-28 16:53:00,
2013-10-28 13:12:00,50.0,36.0,30.04,West,271,7.0,15.0,59,0.00,,,0.00,,2013-10-28 17:12:00,
2013-10-28 13:23:00,49.0,35.0,30.04,NE,36,8.0,18.0,59,0.00,,,0.00,,2013-10-28 17:23:00,
2013-10-28 13:42:00,49.0,35.0,30.05,WSW,256,8.0,20.0,58,0.00,,,0.00,,2013-10-28 17:42:00,
2013-10-28 13:52:00,49.0,35.0,30.06,WSW,246,8.0,22.0,58,0.00,,,0.00,,2013-10-28 17:52:00,
2013-10-28 14:12:00,47.0,34.0,30.08,WNW,282,12.0,19.0,61,0.00,,,0.00,,2013-10-28 18:12:00,
2013-10-28 14:22:00,47.0,35.0,30.08,WNW,295,8.0,18.0,62,0.00,,,0.00,,2013-10-28 18:22:00,
2013-10-28 14:42:00,46.0,36.0,30.13,NW,305,5.0,18.0,67,0.00,,,0.00,,2013-10-28 18:42:00,
2013-10-28 14:52:00,46.0,35.0,30.10,WNW,289,7.0,15.0,65,0.00,,,0.00,,2013-10-28 18:52:00,
2013-10-28 15:11:00,46.0,35.0,30.11,NNW,339,6.0,19.0,64,0.00,,,0.00,,2013-10-28 19:11:00,
2013-10-28 15:22:00,45.0,34.0,30.11,North,1,4.0,14.0,65,0.00,,,0.00,,2013-10-28 19:22:00,
2013-10-28 15:42:00,44.0,35.0,30.13,NW,324,6.0,19.0,70,0.00,,,0.00,,2013-10-28 19:42:00,
2013-10-28 15:53:00,44.0,34.0,30.15,ENE,59,6.0,11.0,69,0.00,,,0.00,,2013-10-28 19:53:00,
2013-10-28 16:12:00,45.0,34.0,30.15,NW,310,5.0,9.0,65,0.00,,,0.00,,2013-10-28 20:12:00,
2013-10-28 16:22:00,43.0,32.0,30.16,WSW,256,6.0,12.0,66,0.00,,,0.00,,2013-10-28 20:22:00,
2013-10-28 16:42:00,43.0,34.0,30.16,NNW,335,5.0,12.0,69,0.00,,,0.00,,2013-10-28 20:42:00,
2013-10-28 16:52:00,43.0,33.0,30.17,WNW,283,3.0,11.0,67,0.00,,,0.00,,2013-10-28 20:52:00,
2013-10-28 17:11:00,42.0,31.0,30.18,SW,236,6.0,12.0,65,0.00,,,0.00,,2013-10-28 21:11:00,
2013-10-28 17:22:00,42.0,31.0,30.18,North,1,5.0,13.0,64,0.00,,,0.00,,2013-10-28 21:22:00,
2013-10-28 17:43:00,41.0,30.0,30.19,West,268,5.0,10.0,64,0.00,,,0.00,,2013-10-28 21:43:00,
2013-10-28 17:54:00,39.0,28.0,30.24,West,259,3.0,10.0,65,0.00,,,0.00,,2013-10-28 21:54:00,
2013-10-28 18:13:00,40.0,29.0,30.22,NNE,15,3.0,11.0,64,0.00,,,0.00,,2013-10-28 22:13:00,
2013-10-28 18:23:00,39.0,28.0,30.22,NNE,17,3.0,7.0,65,0.00,,,0.00,,2013-10-28 22:23:00,
2013-10-28 18:43:00,38.0,27.0,30.24,NNE,22,4.0,9.0,65,0.00,,,0.00,,2013-10-28 22:43:00,
2013-10-28 18:53:00,38.0,27.0,30.24,WNW,295,3.0,8.0,65,0.00,,,0.00,,2013-10-28 22:53:00,
2013-10-28 19:12:00,37.0,26.0,30.24,NW,323,3.0,9.0,65,0.00,,,0.00,,2013-10-28 23:12:00,
2013-10-28 19:22:00,37.0,26.0,30.26,NNW,346,3.0,9.0,64,0.00,,,0.00,,2013-10-28 23:22:00,
2013-10-28 19:42:00,37.0,26.0,30.27,NNW,330,2.0,6.0,64,0.00,,,0.00,,2013-10-28 23:42:00,
2013-10-28 19:53:00,36.0,25.0,30.27,West,273,3.0,6.0,64,0.00,,,0.00,,2013-10-28 23:53:00,
2013-10-28 20:11:00,36.0,25.0,30.28,WSW,244,2.0,7.0,64,0.00,,,0.00,,2013-10-29 00:11:00,
2013-10-28 20:22:00,35.0,24.0,30.28,WNW,295,2.0,5.0,64,0.00,,,0.00,,2013-10-29 00:22:00,
2013-10-28 20:42:00,35.0,24.0,30.29,WNW,288,2.0,5.0,64,0.00,,,0.00,,2013-10-29 00:42:00,
2013-10-28 20:52:00,34.0,23.0,30.33,West,263,1.0,5.0,64,0.00,,,0.00,,2013-10-29 00:52:00,
2013-10-28 21:11:00,34.0,23.0,30.34,NW,311,2.0,5.0,63,0.00,,,0.00,,2013-10-29 01:11:00,
2013-10-28 21:22:00,34.0,23.0,30.29,NW,311,2.0,6.0,63,0.00,,,0.00,,2013-10-29 01:22:00,
2013-10-28 21:42:00,33.0,22.0,30.29,WNW,295,1.0,3.0,64,0.00,,,0.00,,2013-10-29 01:42:00,
2013-10-28 21:52:00,33.0,23.0,30.30,WNW,285,1.0,4.0,65,0.00,,,0.00,,2013-10-29 01:52:00,
2013-10-28 22:11:00,33.0,23.0,30.30,WNW,291,1.0,4.0,65,0.00,,,0.00,,2013-10-29 02:11:00,
2013-10-28 22:21:00,32.0,22.0,30.31,West,260,1.0,3.0,65,0.00,,,0.00,,2013-10-29 02:21:00,
2013-10-28 22:44:00,32.0,22.0,30.32,NNW,335,0.0,3.0,65,0.00,,,0.00,,2013-10-29 02:44:00,
2013-10-28 22:54:00,32.0,22.0,30.32,NW,310,0.0,6.0,65,0.00,,,0.00,,2013-10-29 02:54:00,
2013-10-28 23:14:00,32.0,22.0,30.32,West,277,2.0,6.0,65,0.00,,,0.00,,2013-10-29 03:14:00,
2013-10-28 23:27:00,32.0,22.0,30.32,NW,306,0.0,2.0,66,0.00,,,0.00,,2013-10-29 03:27:00,
2013-10-28 23:40:00,-999.0,-99.9,30.32,NW,316,0.0,3.0,66,0.00,,,0.00,,2013-10-29 03:40:00,
2013-10-28 23:48:00,31.0,21.0,30.32,NW,316,0.0,3.0,66,0.00,,,0.00,,2013-10-29 03:48:00,
2013-10-28 23:56:00,31.0,21.0,30.32,West,279,0.0,3.0,67,0.00,,,0.00,,2013-10-29 03:56:00,